This is the latest recevied weather packets stored in our database for station/object OK1TOM-6. If no packets are shown the sender has not sent any weather packets the latest 10 day(s).
| Time | Temp. | Humidity | Pressure | Rain* | Wind** | Luminosity | Snow |
|---|---|---|---|---|---|---|---|
| 1778118945 | 9.44° C | 95% | 1010.2 hPa | 0 mm | - | - | - |
| 1778118342 | 9.44° C | 94% | 1010.1 hPa | 0 mm | - | - | - |
| 1778117738 | 9.44° C | 95% | 1010.1 hPa | 0.25 mm | - | - | - |
| 1778117135 | 10° C | 95% | 1010 hPa | 0.25 mm | - | - | - |
| 1778116531 | 10° C | 94% | 1009.8 hPa | 0.25 mm | - | - | - |
| 1778115928 | 10° C | 95% | 1009.9 hPa | 0.25 mm | - | - | - |
| 1778115325 | 10° C | 95% | 1010.1 hPa | 0.25 mm | - | - | - |
| 1778114721 | 10° C | 95% | 1010.1 hPa | 0.25 mm | - | - | - |
| 1778114118 | 10° C | 95% | 1010.1 hPa | 0 mm | - | - | - |
| 1778113575 | 10° C | 95% | 1010.1 hPa | 0 mm | - | - | - |
| 1778112971 | 10° C | 95% | 1010.2 hPa | 0 mm | - | - | - |
| 1778112368 | 10° C | 95% | 1010.2 hPa | 0 mm | - | - | - |
| 1778111764 | 10° C | 94% | 1010.1 hPa | 0 mm | - | - | - |
| 1778111161 | 10° C | 94% | 1009.9 hPa | 0 mm | - | - | - |
| 1778110558 | 10° C | 93% | 1009.9 hPa | 0 mm | - | - | - |
| 1778109954 | 10° C | 94% | 1009.9 hPa | 0 mm | - | - | - |
| 1778109351 | 9.44° C | 94% | 1009.9 hPa | 0 mm | - | - | - |
| 1778108747 | 9.44° C | 96% | 1009.9 hPa | 0 mm | - | - | - |
| 1778108144 | 9.44° C | 97% | 1009.7 hPa | 0 mm | - | - | - |
| 1778107540 | 9.44° C | 97% | 1009.6 hPa | 0.25 mm | - | - | - |
| 1778106937 | 9.44° C | 96% | 1009.8 hPa | 1.02 mm | - | - | - |
| 1778106333 | 9.44° C | 96% | 1009.7 hPa | 1.27 mm | - | - | - |
| 1778105730 | 10° C | 96% | 1009.7 hPa | 1.78 mm | - | - | - |
| 1778105126 | 10° C | 96% | 1009.8 hPa | 2.79 mm | - | - | - |
| 1778104523 | 10° C | 95% | 1009.7 hPa | 3.3 mm | - | - | - |
* Rain latest hour (hover to see other rain measurements)
** Current wind speed in m/s (hover to see current wind gust speed)